This demonstration page uses our WeatherBlox Daily Observations layout. Learn more.

38.89511, -77.03637

Hourly Observations for December 23, 2016

Temp ( °F °C ) Dew Point ( °F °C ) Humidity (%) Winds ( mph kmh ) Pressure ( in mb ) Visibility ( mi km ) Precip ( " mm )
12:52 am 00:52 Clear 39 3.9 24 -4.4 55 55 WNW 6 9 30.37 1029 10 16.0934 0 0
1:52 am 01:52 Clear 36 2.2 25 -3.9 64 64 W 5 7 30.4 1029 10 16.0934 0 0
2:52 am 02:52 Clear 37 2.8 24 -4.4 59 59 W 5 7 30.42 1030 10 16.0934 0 0
3:52 am 03:52 Clear 33 0.6 28 -2.2 82 82 S 5 7 30.42 1030 10 16.0934 0 0
4:52 am 04:52 Partly Cloudy 32 0 29 -1.7 88 88 S 5 7 30.44 1031 10 16.0934 0 0
5:52 am 05:52 Mostly Cloudy 33 0.6 26 -3.3 75 75 Calm 30.46 1032 10 16.0934 0 0
6:52 am 06:52 Mostly Cloudy 32 0 28 -2.2 85 85 SSW 5 7 30.49 1032 10 16.0934 0 0
7:52 am 07:52 Mostly Cloudy 32 0 26 -3.3 79 79 S 7 11 30.5 1033 10 16.0934 0 0
8:52 am 08:52 Mostly Cloudy 36 2.2 31 -0.6 82 82 SSE 5 7 30.52 1034 10 16.0934 0 0
9:52 am 09:52 Mostly Cloudy 40 4.4 29 -1.7 65 65 NNE 3 6 30.53 1034 10 16.0934 0 0
10:52 am 10:52 Mostly Cloudy 42 5.6 27 -2.8 55 55 SE 3 6 30.53 1034 10 16.0934 0 0
11:52 am 11:52 Mostly Cloudy 46 7.8 27 -2.8 47 47 S 7 11 30.5 1033 10 16.0934 0 0
12:52 pm 12:52 Mostly Cloudy 46 7.8 26 -3.3 46 46 SE 5 7 30.48 1032 10 16.0934 0 0
1:52 pm 13:52 Mostly Cloudy 45 7.2 30 -1.1 56 56 S 14 22 30.47 1032 10 16.0934 0 0
2:52 pm 14:52 Cloudy 46 7.8 27 -2.8 47 47 S 9 15 30.47 1032 10 16.0934 0 0
3:52 pm 15:52 Cloudy 44 6.7 29 -1.7 55 55 S 7 11 30.48 1032 10 16.0934 0 0
4:52 pm 16:52 Cloudy 42 5.6 28 -2.2 58 58 S 9 15 30.47 1032 10 16.0934 0 0
5:52 pm 17:52 Cloudy 40 4.4 30 -1.1 68 68 S 7 11 30.46 1032 10 16.0934 0 0
6:52 pm 18:52 Cloudy 40 4.4 31 -0.6 70 70 S 5 7 30.46 1032 10 16.0934 0 0
7:52 pm 19:52 Cloudy 41 5 28 -2.2 60 60 S 6 9 30.46 1031 10 16.0934 0 0
8:52 pm 20:52 Cloudy 41 5 28 -2.2 60 60 S 8 13 30.45 1031 10 16.0934 0 0
9:52 pm 21:52 Cloudy 41 5 30 -1.1 65 65 S 3 6 30.42 1030 10 16.0934 0 0
10:52 pm 22:52 Cloudy 42 5.6 29 -1.7 60 60 S 7 11 30.42 1030 10 16.0934 0 0
11:52 pm 23:52 Cloudy with Light Rain 43 6 28 -2 57 57 S 7 11 30.39 1029 10 16.0934 0 0

Powered by AerisWeather